Location: Newark
(48.3453°N, 0.5589°E)
Time: 00:42:40
(UTC+00:00)

Explorer 11/Cluster Stage 4 - All Passes

Search period start: 16 December 2019 00:00
Search period end: 26 December 2019 00:00
Orbit: 467 x 1259 km, 28.8° (Epoch: 15 December)

Date Brightness Start Highest point End Pass type
(mag) Time Alt. Az. Time Alt. Az. Time Alt. Az.
16 Dec - 07:52:24 10° SSW 07:55:46 13° SSE 07:58:59 10° SE daylight
16 Dec - 09:39:35 10° SW 09:43:29 15° S 09:47:06 10° SSE daylight
17 Dec - 07:40:48 10° SSW 07:44:45 14° S 07:48:33 10° SE daylight
17 Dec - 09:28:21 10° SW 09:32:30 15° S 09:36:23 10° SSE daylight
18 Dec - 07:29:20 10° SSW 07:33:44 16° S 07:37:58 10° SE daylight
18 Dec - 09:17:10 10° SW 09:21:31 16° S 09:25:35 10° SSE daylight
19 Dec - 07:18:00 10° SSW 07:22:41 16° S 07:27:16 10° SE daylight
19 Dec - 09:06:03 10° SW 09:10:29 16° S 09:14:42 10° SSE daylight
20 Dec - 05:21:53 10° S 05:23:55 11° SSE 05:25:57 10° SE visible
20 Dec - 07:06:45 10° SSW 07:11:39 17° S 07:16:28 10° SE visible
20 Dec - 08:55:00 10° SW 08:59:28 16° S 09:03:44 10° SSE daylight
21 Dec - 05:10:04 10° S 05:12:51 12° SSE 05:15:40 10° SE visible
21 Dec - 06:55:35 10° SW 07:00:36 18° S 07:05:35 10° SE visible
21 Dec - 08:44:02 10° SW 08:48:26 16° SSW 08:52:40 10° SSE daylight
22 Dec - 04:58:34 10° S 05:01:47 13° SSE 05:05:05 10° SE visible
22 Dec - 06:44:30 10° SW 06:49:33 18° S 06:54:38 10° SE visible
22 Dec - 08:33:08 10° SW 08:37:23 15° SSW 08:41:31 10° SSE daylight
23 Dec - 04:47:15 10° S 04:50:44 14° SSE 04:54:20 10° SE visible
23 Dec - 06:33:29 10° SW 06:38:29 18° S 06:43:35 10° SE visible
23 Dec - 08:22:20 10° SW 08:26:18 14° SSW 08:30:15 10° SSE daylight
24 Dec - 04:36:04 10° SSW 04:39:42 14° SSE 04:43:29 10° SE visible
24 Dec - 06:22:33 10° SW 06:27:27 18° S 06:32:29 10° SE visible
24 Dec - 08:11:38 10° SW 08:15:15 13° SSW 08:18:50 10° S daylight
25 Dec - 04:25:01 10° SSW 04:28:40 14° SSE 04:32:30 10° SE visible
25 Dec - 06:11:41 10° SW 06:16:24 17° S 06:21:19 10° SE visible
25 Dec - 08:01:08 10° SW 08:04:11 12° SSW 08:07:14 10° S daylight
